カタログに戻る

STARLINK-30355

運用中通信VLEO
NORAD 57777·PAYLOAD·🇺🇸 United States

打ち上げ Sep 4, 2023 から Cape Canaveral Space Force Station

Loading…

次のパス (今後24時間)

TLE

最新Source: CelesTrak SupGP

元期: Sep 14, 2026, 21:30 UTC

1 57777C 23134G   26257.89631944  .00019177  00000+0  69464-3 0  2575
2 57777  43.0010 209.4401 0001224 250.0727  59.0034 15.27566558    17

AllMySatでSTARLINK-30355をリアルタイム追跡

Download on the App Store